Regional Weather Roundup
Issued by NWS

Home | Current Version | Previous Version | Text Only | Print | Product List | Glossary On
Versions: 1 2 3 4 5 6 7 8 9 10 11 12 13 14 15 16 17 18 19 20 21 22 23 24 25 26 27 28 29 30 31 32 33 34 35 36 37 38 39 40 41 42 43 44 45 46 47 48 49 50
614
ASUS43 KMPX 282301
RWRMN
WEATHER ROUNDUP FOR MINNESOTA
NATIONAL WEATHER SERVICE TWIN CITIES/CHANHASSEN MN
600 PM CDT FRI APR 28 2017


NOTE: "FAIR" INDICATES FEW OR NO CLOUDS BELOW 12,000 FEET WITH NO
SIGNIFICANT WEATHER AND/OR OBSTRUCTIONS TO VISIBILITY. N/A MEANS
CURRENT SKY AND/OR WEATHER CONDITIONS ARE NOT AVAILABLE.

MNZ060>063-068>070-290000-
   Twin Cities Metro

CITY           SKY/WX    TMP DP  RH WIND       PRES   REMARKS
TWIN CITIES    CLOUDY    51  29  42 VRB7      29.96R
ST PAUL        CLOUDY    50  30  46 N7        29.98R
CRYSTAL        CLOUDY    50  26  39 N7        29.96R
BLAINE         PTSUNNY   52  28  40 N10       29.96R
LAKEVILLE      PTSUNNY   48  30  49 NW9       29.95S
EDEN PRAIRIE   CLOUDY    50  28  42 N9        29.95R
SOUTH ST PAUL  MOSUNNY   50  29  44 N7        29.96R
LAKE ELMO      FAIR      46  32  57 NW5       29.98R
$$
MNZ001>005-007-008-013>017-022>024-027-028-290000-
   Northwest Minnesota

CITY           SKY/WX    TMP DP  RH WIND       PRES   REMARKS
BEMIDJI        SUNNY     47  15  27 NW8       30.00R
HALLOCK        SUNNY     55   7  14 NW16      30.02R
ROSEAU         SUNNY     50  18  27 N10       30.02R
WARROAD        SUNNY     48  19  32 W8        30.03R
THIEF RVR FALL SUNNY     50  12  21 N14       30.04R
CROOKSTON      SUNNY     52  21  30 NE10G17   30.04R
FOSSTON        SUNNY     50  19  29 NW13      30.03R
DETROIT LAKES  SUNNY     50  19  29 N13G18    30.03R
MOORHEAD       SUNNY     52  23  32 N16G25    30.05R
PARK RAPIDS    SUNNY     51   9  18 N12       29.99R
MAHNOMEN       FAIR      49  24  36 N13G18    30.02R
$$
MNZ006-009>011-018-025>026-290000-
   North Central Minnesota

CITY           SKY/WX    TMP DP  RH WIND       PRES   REMARKS
BAUDETTE       SUNNY     46  22  38 NW13      30.01R
FLAG ISLAND    SUNNY     43  21  42 NW10      30.01R
INTL FALLS     SUNNY     44  21  40 N10       30.00R
WASKISH        SUNNY     46  27  46 NW12      30.02R
BIG FORK       MOSUNNY   45  25  45 N7        29.99R
LONGVILLE      SUNNY     48  16  27 NW10      29.98R
GRAND RAPIDS   PTSUNNY   49  25  39 NW15G21   29.97R
CRANE LAKE     PTSUNNY   39  23  52 NW8G16    30.01R
ORR            PTSUNNY   43  21  42 NW8       29.97R
COOK           MOSUNNY   41  25  52 N8G16     29.99R
WALKER         FAIR      48  17  29 NW13      29.99R
$$
MNZ012-019>021-037-290000-
   Northeast Minnesota

CITY           SKY/WX    TMP DP  RH WIND       PRES   REMARKS
DULUTH         CLOUDY    47  26  44 N10       29.93R
ELY            CLOUDY    37  25  60 NW10G18   29.97R
HIBBING        MOSUNNY   44  25  47 N14       29.96R
EVELETH        PTSUNNY   44  16  32 N10G21    29.98R
DULUTH HARBOR  CLOUDY    48  30  49 NW9       29.96R
TWO HARBORS    CLOUDY    48  28  46 NW8       29.92R
SILVER BAY     CLOUDY    45  28  53 N6        29.93R
GRAND MARAIS     N/A     40  29  64 CALM      29.96R
G MARAIS ARPRT CLOUDY    30  23  74 CALM      29.92R
$$
MNZ029>031-032-039>041-046>048-054>057-064-290000-
   West Central Minnesota

CITY           SKY/WX    TMP DP  RH WIND       PRES   REMARKS
FERGUS FALLS   MOSUNNY   50  23  34 N13G22    30.02R
WHEATON        CLOUDY    54  16  22 N16       30.04R
MORRIS         CLOUDY    52  25  35 N18G24    30.00R
ALEXANDRIA     CLOUDY    50  21  32 N16       30.00R
ELBOW LAKE     FAIR      49  22  34 N14G21    30.01S
WADENA         CLOUDY    48  19  32 NW8       29.99R
GLENWOOD       CLOUDY    50  21  32 NW10G20   30.00R
APPLETON       CLOUDY    52  19  28 N17G23    30.01R
BENSON         CLOUDY    54   0  11 NE16G22   30.02R
ORTONVILLE     CLOUDY    52  25  35 N17       30.02R
MADISON        CLOUDY    54  25  32 N14G23    30.01R
WILLMAR        FAIR      52  30  43 N15G21    30.00R
$$
MNZ033>034-036-042>043-049>051-058-059-290000-
   Central Minnesota

CITY           SKY/WX    TMP DP  RH WIND       PRES   REMARKS
ST CLOUD       CLOUDY    51  24  34 N9        29.96R
SAUK CENTRE    FAIR      50  20  30 N10       29.98R
PAYNESVILLE    CLOUDY    50  22  32 NW10      29.98R
AITKIN         CLOUDY    54  14  20 NW8       29.95S
PINE RIVER     SUNNY     50  19  29 N10G17    30.02R
BRAINERD       CLOUDY    50  18  28 N10       29.98R
STAPLES        CLOUDY    48   9  20 N12G17    29.98S
LONG PRAIRIE   FAIR      50  19  29 NW9G21    29.98R
LITTLE FALLS   CLOUDY    52  16  24 NW6       29.97R
LITCHFIELD     CLOUDY    52  27  37 N9G17     29.98R
BUFFALO        CLOUDY    51  26  38 NE6       29.98R
MAPLE LAKE     CLOUDY    52  30  43 N10       29.98R
HUTCHINSON     SUNNY     51  31  47 N8        29.99R
$$
MNZ037-044-045-052-053-290000-
   East Central Minnesota

CITY           SKY/WX    TMP DP  RH WIND       PRES   REMARKS
PRINCETON      CLOUDY    52  27  37 N9        29.97R
MORA           MOSUNNY   48  27  43 NW12      29.97S
CAMBRIDGE      CLOUDY    52  32  46 N9        29.95R
RUSH CITY      CLOUDY    50  27  41 N9        29.96R
MOOSE LAKE     CLOUDY    50  27  40 NW6       29.92S
HINCKLEY       FAIR      52  28  40 N7        29.95S
CLOQUET        CLOUDY    50  19  29 N16G23    29.94R
MCGREGOR       CLOUDY    50  27  40 N13       29.95S
$$
MNZ071>073-080-081-089-090-097-098-290000-
   Southwest Minnesota

CITY           SKY/WX    TMP DP  RH WIND       PRES   REMARKS
MONTEVIDEO     CLOUDY    52  19  28 NE18G26   30.00R
GRANITE FALLS  MOSUNNY   52  26  36 N13       30.01R
CANBY          CLOUDY    51  25  36 N9        30.02R
MARSHALL       CLOUDY    52  25  35 N13       29.99R
REDWOOD FALLS  PTSUNNY   52  25  35 N14       29.98R
OLIVIA         MOSUNNY   50  27  40 NE7       29.99R
PIPESTONE      CLOUDY    48  25  40 NE14      29.98R
WINDOM         MOSUNNY   46  34  61 N8        29.97R
WORTHINGTON    PTSUNNY   46  31  55 N14       29.97R
JACKSON        PTSUNNY   45  30  57 NE13      29.97R
TRACY          CLOUDY    50  33  52 NE10      29.99R
SLAYTON        MOSUNNY   47  30  51 N14       29.98R
$$
MNZ065>067-074>077-082>085-091>093-290000-
   South Central Minnesota

CITY           SKY/WX    TMP DP  RH WIND       PRES   REMARKS
MANKATO        CLOUDY    47  32  56 N10       29.96S
NEW ULM        CLOUDY    48  30  49 NE9       29.97R
ST JAMES       CLOUDY    46  34  61 N9        29.97R
FAIRMONT       CLOUDY    47  32  56 NE6       29.98R
GLENCOE        CLOUDY    51  33  51 N6        29.97R
FARIBAULT      CLOUDY    48  30  49 N5        29.96R
OWATONNA       CLOUDY    46  28  49 N7        29.95R
WASECA         CLOUDY    45  32  61 N8        29.96R
ALBERT LEA     CLOUDY    45  30  57 N12       29.92F
$$
MNZ078>079-086>088-094>096-290000-
   Southeast Minnesota

CITY           SKY/WX    TMP DP  RH WIND       PRES   REMARKS
ROCHESTER      CLOUDY    45  33  63 N10       29.94R
RED WING       CLOUDY    48  27  43 NW7       29.95R
STANTON        CLOUDY    49  31  51 N5        29.94S
DODGE CENTER   CLOUDY    45  30  57 N6        29.95R
WINONA         CLOUDY    48  34  57 NW5       29.95R
AUSTIN         CLOUDY    45  34  65 N10       29.91F
PRESTON        CLOUDY    43  32  66 NE5       29.94S
$$
ABBREVIATIONS USED IN REMARKS
   TC - TEMPERATURES IN CELSIUS
  WCI - WIND CHILL INDEX
   HX - HEAT INDEX
  VSB - VISIBILITY
$$




USA.gov is the U.S. government's official web portal to all federal, state and local government web resources and services.